Dewpoint
41 43 46 56 56 55 55 54 50 48 49 50 51 52 52 52 52 52 51 54 56 55 56 55 53 52 49 49 48 46 44 42 41 39 39 38 38 38
38 40 44 52 56 56 55 54 52 50 49 50 50 52 51 50 51 51 51 52 54 55 55 53 51 51 49 50 47 45 43 41 40 38 37 37 36 37
37 38 40 44 56 55 55 54 53 52 49 50 50 51 50 49 50 50 50 52 53 54 53 52 51 50 50 48 46 44 42 40 39 37 36 35 35 35
31 36 40 44 55 55 54 54 53 53 50 49 49 50 50 49 49 49 49 49 51 53 52 51 50 50 49 47 46 43 42 40 39 37 35 34 34 33
33 32 36 41 51 54 54 53 53 53 50 49 49 50 50 49 49 49 48 48 52 50 51 51 50 49 48 47 46 44 43 41 39 37 35 33 33 32
29 37 38 41 45 54 54 54 53 53 50 49 49 49 49 49 49 48 47 49 50 50 49 49 49 49 48 47 45 44 43 41 38 37 35 33 31 31
28 31 35 41 44 53 54 53 53 52 50 48 47 48 48 48 47 47 47 48 49 49 48 47 47 47 46 46 44 43 43 40 38 37 35 34 32 30
27 31 34 38 43 47 52 52 52 51 48 46 47 47 47 48 47 47 46 46 43 47 47 45 46 45 44 43 44 44 43 40 39 38 37 34 33 30
27 32 34 36 42 49 51 51 51 50 48 47 46 47 46 48 47 46 46 45 44 43 46 42 45 43 43 42 44 44 43 41 39 38 37 35 33 31
28 32 36 37 41 49 52 52 52 51 49 47 47 47 48 48 47 46 46 45 43 45 46 41 41 42 43 42 45 44 43 42 40 38 37 35 34 31
27 29 36 38 42 47 52 51 50 50 48 47 46 46 46 47 48 47 45 44 39 41 45 43 40 40 41 41 42 44 43 43 41 38 38 36 34 32
27 28 34 38 40 45 52 50 48 48 47 47 46 46 46 46 46 47 45 43 41 36 41 42 39 36 35 38 39 42 42 43 42 40 38 37 35 29
27 30 33 37 41 44 49 50 48 48 47 46 46 46 46 46 47 47 45 44 42 37 40 42 38 38 37 32 37 39 42 41 40 40 40 38 36 31
27 29 33 38 39 43 44 49 48 47 47 46 45 45 45 45 46 46 46 45 44 41 41 42 36 39 39 31 30 36 39 40 40 38 37 37 36 34
28 32 36 40 41 43 45 47 46 47 46 44 44 44 45 45 45 43 43 40 38 39 41 42 37 39 38 34 29 33 35 37 39 37 36 35 33 29
31 33 39 42 42 43 47 47 47 46 45 44 44 44 44 44 44 44 41 38 36 34 36 38 37 38 35 32 30 32 34 33 36 36 35 33 29 26
31 34 38 41 41 44 47 46 46 45 44 44 43 42 42 42 41 41 39 38 38 34 32 33 35 33 32 32 29 32 32 29 35 34 32 30 25 21
29 33 34 39 39 44 45 44 44 44 43 42 41 41 40 40 37 38 38 38 37 35 33 31 31 29 28 27 31 31 30 30 33 32 30 27 23 20
31 32 34 37 39 43 44 43 42 42 42 41 40 40 39 38 37 37 36 37 36 35 32 30 30 30 26 24 26 31 29 29 30 28 28 27 25 19
33 32 35 38 40 43 43 42 41 41 41 40 39 38 38 37 36 36 36 36 36 34 32 30 30 31 31 29 23 25 29 29 27 26 25 23 23 22
35 35 38 39 41 42 42 42 40 40 39 38 38 37 37 37 36 36 36 38 37 34 32 30 31 33 29 28 24 24 26 30 28 26 24 21 21 21
33 38 40 41 41 41 41 41 39 39 38 37 37 37 37 37 37 36 36 36 36 34 33 31 31 29 27 27 24 23 24 25 28 27 26 25 23 20
32 37 41 41 42 41 40 39 38 38 38 38 37 37 37 36 37 37 36 36 35 33 32 30 30 29 29 28 25 23 23 25 25 24 26 28 27 25
Lifted_Index
7 5 3 3 3 4 4 4 4 4 5 6 7 7 8 9 10 10 10 10 10 10 10 11 13 14 15 15 16 17 18 19 19 20 20 20 20 20
8 6 4 3 3 4 3 4 4 4 4 6 7 7 8 9 10 10 10 10 10 10 10 11 13 14 15 16 17 18 19 19 20 20 20 20 20 20
10 8 5 4 3 4 3 3 4 4 4 5 7 8 8 9 10 10 11 11 11 10 11 12 13 14 15 16 18 19 19 20 20 20 20 20 20 20
13 10 6 5 4 4 3 3 4 4 4 5 6 8 9 9 10 11 11 12 11 11 11 11 12 13 14 16 18 19 20 20 20 20 20 20 20 21
15 11 8 6 5 4 4 3 3 4 4 5 5 7 8 9 10 11 12 12 12 12 12 12 12 13 14 15 17 18 20 20 21 21 21 21 21 21
17 13 10 8 6 4 4 3 3 4 4 4 5 6 8 9 10 11 12 12 13 12 12 12 13 14 14 15 16 17 19 20 21 21 21 21 21 21
18 15 11 8 6 4 3 3 3 3 4 4 4 6 7 8 9 10 11 12 13 13 13 13 13 14 15 15 16 17 17 18 19 20 21 22 22 22
18 15 12 9 7 5 4 3 3 3 3 3 3 5 6 8 9 10 11 11 12 13 13 13 14 14 15 16 16 16 17 17 18 19 21 22 22 22
18 16 13 10 9 7 5 4 4 3 3 3 3 4 5 6 8 9 10 10 11 12 13 14 14 15 15 16 16 16 17 17 18 18 20 21 22 22
19 18 14 11 10 8 5 4 4 3 3 3 4 4 5 6 7 8 9 10 11 12 13 14 14 15 15 15 16 16 17 17 18 18 19 20 22 22
19 18 15 13 11 9 6 4 4 3 3 4 4 5 5 6 8 9 9 10 11 12 13 13 14 14 15 15 16 17 17 17 18 18 18 19 21 21
18 18 16 13 12 9 6 4 4 3 3 4 5 5 6 7 9 9 9 10 10 11 12 12 12 13 14 15 16 16 17 17 17 18 18 19 20 21
17 17 16 14 12 9 7 5 4 4 4 4 4 5 6 7 9 9 9 10 10 11 11 11 12 12 13 14 14 15 16 16 17 17 18 19 19 20
17 17 16 14 12 10 8 6 5 4 4 4 3 4 4 6 8 9 10 10 11 11 11 12 12 12 12 13 13 14 14 15 16 17 18 18 19 20
16 16 15 14 12 10 9 7 6 5 5 4 4 3 4 5 7 9 10 10 11 11 12 12 12 12 13 13 13 13 14 14 15 16 17 18 18 19
16 15 14 12 11 10 9 8 7 6 5 4 4 4 4 5 6 8 8 9 10 11 12 12 13 13 13 14 14 14 14 14 15 16 17 17 18 19
16 15 13 12 10 10 9 8 7 6 5 5 5 4 4 5 6 7 7 8 10 11 12 12 13 13 14 14 15 15 15 15 16 16 17 17 18 19
15 14 13 11 9 9 9 8 7 6 6 5 5 5 4 4 5 6 7 7 9 11 12 12 12 13 13 14 15 16 16 16 16 17 17 17 17 18
13 13 12 9 8 8 9 8 6 6 6 6 5 5 4 4 4 5 6 6 8 10 12 12 12 12 12 13 15 16 17 17 17 17 17 18 18 18
12 12 10 8 7 8 8 7 6 6 6 6 6 5 5 4 4 4 5 6 7 9 11 12 12 13 13 14 15 16 17 18 17 17 17 18 18 19
10 10 9 7 7 8 7 7 6 6 6 6 6 5 5 4 4 4 4 5 6 8 9 11 13 13 15 15 15 16 17 18 19 19 18 18 18 17
10 9 8 7 7 8 7 6 6 6 6 6 6 6 5 5 4 4 4 5 6 7 9 11 13 14 15 15 15 15 16 17 19 19 20 19 18 16
10 9 7 7 7 8 7 6 5 5 6 6 6 6 5 5 4 4 4 5 6 7 9 11 13 14 15 15 14 14 15 16 18 19 20 20 19 18